Location: Overspoor
(51.4747°N, 5.6641°E)
Time: 14:37:19
(UTC+02:00)

RS-15 - Pass Details

Date: 02 July 2022
Orbit: 1881 x 2163 km, 64.8° (Epoch: 13 August)

Event Time Altitude Azimuth Distance (km) Brightness Sun altitude
Rises 22:16:04 0° 301° (WNW) 5,672 12.6 -3.0°
Reaches altitude 10° 22:19:44 10° 307° (NW) 4,682 12.0 -3.4°
Maximum altitude 22:31:48 52° 23° (NNE) 2,564 8.9 -4.7°
Drops below altitude 10° 22:43:38 10° 98° (E) 4,616 9.5 -5.9°
Sets 22:47:12 0° 104° (ESE) 5,588 9.9 -6.3°
